Time,TemperatureF,DewpointF,PressureIn,WindDirection,WindDirectionDegrees,WindSpeedMPH,WindSpeedGustMPH,Humidity,HourlyPrecipIn,Conditions,Clouds,dailyrainin,SoftwareType,DateUTC
2013-07-04 00:02:00,72.0,71.0,30.09,South,174,0.0,1.0,96,0.00,,,0.16,,2013-07-04 04:02:00,
2013-07-04 00:11:00,72.0,71.0,30.09,South,172,0.0,2.0,96,0.00,,,0.16,,2013-07-04 04:11:00,
2013-07-04 00:33:00,72.0,71.0,30.09,SSE,153,0.0,1.0,96,0.00,,,0.16,,2013-07-04 04:33:00,
2013-07-04 00:43:00,72.0,71.0,30.11,SSW,199,2.0,4.0,96,0.47,,,0.63,,2013-07-04 04:43:00,
2013-07-04 00:52:00,72.0,71.0,30.11,WSW,246,5.0,10.0,96,1.34,,,1.50,,2013-07-04 04:52:00,
2013-07-04 01:02:00,71.0,69.0,30.11,WSW,238,3.0,11.0,95,1.50,,,1.65,,2013-07-04 05:02:00,
2013-07-04 01:33:00,69.0,68.0,30.10,West,267,0.0,1.0,96,2.09,,,2.24,,2013-07-04 05:33:00,
2013-07-04 01:43:00,69.0,68.0,30.10,West,265,0.0,1.0,96,1.42,,,2.28,,2013-07-04 05:43:00,
2013-07-04 01:52:00,69.0,68.0,30.09,West,265,0.0,1.0,97,0.63,,,2.28,,2013-07-04 05:52:00,
2013-07-04 02:01:00,69.0,68.0,30.09,South,180,0.0,1.0,97,0.47,,,2.28,,2013-07-04 06:01:00,
2013-07-04 02:11:00,69.0,68.0,30.09,South,180,0.0,0.0,97,0.31,,,2.28,,2013-07-04 06:11:00,
2013-07-04 02:22:00,69.0,68.0,30.09,South,180,0.0,0.0,97,0.20,,,2.28,,2013-07-04 06:22:00,
2013-07-04 02:34:00,69.0,68.0,30.09,South,180,0.0,0.0,97,0.04,,,2.28,,2013-07-04 06:34:00,
2013-07-04 02:43:00,69.0,68.0,30.09,South,180,0.0,0.0,97,0.00,,,2.28,,2013-07-04 06:43:00,
2013-07-04 02:52:00,69.0,68.0,30.09,South,180,0.0,0.0,98,0.00,,,2.28,,2013-07-04 06:52:00,
2013-07-04 03:02:00,69.0,68.0,30.09,NW,308,0.0,3.0,98,0.00,,,2.28,,2013-07-04 07:02:00,
2013-07-04 03:12:00,69.0,68.0,30.09,NW,308,0.0,0.0,98,0.00,,,2.28,,2013-07-04 07:12:00,
2013-07-04 03:52:00,68.0,67.0,30.09,NW,308,0.0,0.0,97,0.00,,,2.28,,2013-07-04 07:52:00,
2013-07-04 04:02:00,68.0,67.0,30.08,NW,308,0.0,0.0,98,0.00,,,2.28,,2013-07-04 08:02:00,
2013-07-04 04:22:00,68.0,67.0,30.09,NW,308,0.0,0.0,98,0.00,,,2.28,,2013-07-04 08:22:00,
2013-07-04 04:33:00,68.0,67.0,30.08,NW,308,0.0,0.0,98,0.00,,,2.28,,2013-07-04 08:33:00,
2013-07-04 04:42:00,68.0,67.0,30.08,NW,308,0.0,0.0,98,0.00,,,2.28,,2013-07-04 08:42:00,
2013-07-04 04:53:00,68.0,67.0,30.08,NW,308,0.0,0.0,98,0.00,,,2.28,,2013-07-04 08:53:00,
2013-07-04 05:02:00,68.0,67.0,30.09,NW,308,0.0,0.0,98,0.00,,,2.28,,2013-07-04 09:02:00,
2013-07-04 05:11:00,68.0,67.0,30.09,NW,308,0.0,1.0,98,0.00,,,2.28,,2013-07-04 09:11:00,
2013-07-04 06:11:00,69.0,68.0,30.09,WSW,251,0.0,1.0,98,0.00,,,2.28,,2013-07-04 10:11:00,
2013-07-04 06:34:00,69.0,68.0,30.09,SW,227,0.0,0.0,98,0.00,,,2.28,,2013-07-04 10:34:00,
2013-07-04 06:53:00,70.0,69.0,30.09,SW,227,0.0,2.0,98,0.00,,,2.28,,2013-07-04 10:53:00,
2013-07-04 07:02:00,70.0,70.0,30.09,SW,227,1.0,4.0,99,0.00,,,2.28,,2013-07-04 11:02:00,
2013-07-04 07:12:00,70.0,70.0,30.10,SSW,210,1.0,4.0,99,0.00,,,2.28,,2013-07-04 11:12:00,
2013-07-04 07:34:00,71.0,71.0,30.11,SSW,209,1.0,3.0,99,0.00,,,2.28,,2013-07-04 11:34:00,
2013-07-04 07:43:00,71.0,70.0,30.11,SSW,209,0.0,2.0,98,0.00,,,2.28,,2013-07-04 11:43:00,
2013-07-04 08:33:00,71.0,70.0,30.14,SW,216,5.0,12.0,98,0.71,,,2.99,,2013-07-04 12:33:00,
2013-07-04 08:43:00,71.0,70.0,30.14,SW,215,3.0,8.0,97,0.75,,,3.03,,2013-07-04 12:43:00,
2013-07-04 08:52:00,71.0,70.0,30.14,SW,218,2.0,6.0,97,0.59,,,3.07,,2013-07-04 12:52:00,
2013-07-04 09:33:00,71.0,70.0,30.15,SSW,210,2.0,5.0,97,0.28,,,3.27,,2013-07-04 13:33:00,
2013-07-04 09:43:00,71.0,70.0,30.15,SSW,213,3.0,7.0,97,0.24,,,3.27,,2013-07-04 13:43:00,
2013-07-04 10:02:00,71.0,70.0,30.14,SSW,202,0.0,3.0,97,0.28,,,3.39,,2013-07-04 14:02:00,
2013-07-04 10:12:00,71.0,70.0,30.14,SSW,202,0.0,2.0,97,0.24,,,3.39,,2013-07-04 14:12:00,
2013-07-04 10:22:00,72.0,71.0,30.14,SSW,211,1.0,5.0,97,0.16,,,3.39,,2013-07-04 14:22:00,
2013-07-04 10:43:00,72.0,70.0,30.13,South,182,0.0,3.0,93,0.12,,,3.39,,2013-07-04 14:43:00,
2013-07-04 10:53:00,73.0,71.0,30.13,South,178,1.0,3.0,95,0.12,,,3.39,,2013-07-04 14:53:00,
2013-07-04 11:02:00,73.0,71.0,30.13,South,169,2.0,3.0,93,0.04,,,3.39,,2013-07-04 15:02:00,
2013-07-04 11:23:00,74.0,72.0,30.13,South,176,4.0,6.0,93,0.00,,,3.39,,2013-07-04 15:23:00,
2013-07-04 11:33:00,74.0,72.0,30.13,South,183,3.0,6.0,92,0.04,,,3.43,,2013-07-04 15:33:00,
2013-07-04 11:43:00,74.0,72.0,30.13,SE,137,2.0,5.0,92,0.04,,,3.43,,2013-07-04 15:43:00,
2013-07-04 11:52:00,74.0,72.0,30.12,SSE,164,3.0,7.0,92,0.04,,,3.43,,2013-07-04 15:52:00,
2013-07-04 12:02:00,74.0,72.0,30.12,South,169,4.0,7.0,92,0.04,,,3.43,,2013-07-04 16:02:00,
2013-07-04 12:11:00,75.0,73.0,30.12,South,190,3.0,7.0,92,0.04,,,3.43,,2013-07-04 16:11:00,
2013-07-04 12:22:00,76.0,73.0,30.12,SSW,203,3.0,7.0,90,0.00,,,3.43,,2013-07-04 16:22:00,
2013-07-04 12:33:00,76.0,72.0,30.12,South,178,4.0,9.0,88,0.00,,,3.43,,2013-07-04 16:33:00,
2013-07-04 12:43:00,76.0,72.0,30.12,South,188,5.0,8.0,88,0.00,,,3.43,,2013-07-04 16:43:00,
2013-07-04 12:52:00,77.0,73.0,30.12,South,186,5.0,10.0,87,0.00,,,3.43,,2013-07-04 16:52:00,
2013-07-04 13:02:00,77.0,73.0,30.13,SW,219,4.0,10.0,87,0.00,,,3.43,,2013-07-04 17:02:00,
2013-07-04 13:12:00,78.0,73.0,30.12,SW,216,6.0,10.0,86,0.00,,,3.43,,2013-07-04 17:12:00,
2013-07-04 13:22:00,78.0,73.0,30.13,SW,232,5.0,9.0,85,0.00,,,3.43,,2013-07-04 17:22:00,
2013-07-04 13:34:00,78.0,72.0,30.12,SW,215,4.0,7.0,83,0.00,,,3.43,,2013-07-04 17:34:00,
2013-07-04 13:43:00,78.0,72.0,30.12,SW,215,5.0,10.0,83,0.00,,,3.43,,2013-07-04 17:43:00,
2013-07-04 13:53:00,78.0,72.0,30.11,SSW,207,6.0,10.0,81,0.00,,,3.43,,2013-07-04 17:53:00,
2013-07-04 14:01:00,79.0,73.0,30.11,SW,233,4.0,7.0,82,0.00,,,3.43,,2013-07-04 18:01:00,
2013-07-04 14:11:00,79.0,72.0,30.11,SW,219,4.0,9.0,80,0.00,,,3.43,,2013-07-04 18:11:00,
2013-07-04 14:22:00,80.0,74.0,30.11,SSW,207,4.0,8.0,83,0.00,,,3.43,,2013-07-04 18:22:00,
2013-07-04 14:33:00,80.0,72.0,30.11,SW,221,6.0,9.0,76,0.00,,,3.43,,2013-07-04 18:33:00,
2013-07-04 14:43:00,80.0,74.0,30.10,SSW,207,5.0,9.0,81,0.00,,,3.43,,2013-07-04 18:43:00,
2013-07-04 14:52:00,82.0,73.0,30.10,South,185,5.0,7.0,74,0.00,,,3.43,,2013-07-04 18:52:00,
2013-07-04 15:02:00,82.0,73.0,30.10,SSW,205,4.0,9.0,74,0.00,,,3.43,,2013-07-04 19:02:00,
2013-07-04 15:12:00,82.0,72.0,30.10,SW,219,6.0,9.0,71,0.00,,,3.43,,2013-07-04 19:12:00,
2013-07-04 15:22:00,81.0,72.0,30.10,SSW,207,5.0,8.0,73,0.00,,,3.43,,2013-07-04 19:22:00,
2013-07-04 15:33:00,82.0,73.0,30.10,SW,220,3.0,7.0,74,0.00,,,3.43,,2013-07-04 19:33:00,
2013-07-04 15:43:00,82.0,72.0,30.09,SW,230,5.0,10.0,73,0.00,,,3.43,,2013-07-04 19:43:00,
2013-07-04 15:53:00,83.0,73.0,30.09,SSW,192,5.0,10.0,72,0.00,,,3.43,,2013-07-04 19:53:00,
2013-07-04 16:02:00,84.0,73.0,30.09,SSW,210,5.0,10.0,70,0.00,,,3.43,,2013-07-04 20:02:00,
2013-07-04 16:22:00,83.0,71.0,30.09,WSW,254,6.0,10.0,68,0.00,,,3.43,,2013-07-04 20:22:00,
2013-07-04 16:34:00,84.0,73.0,30.09,SW,217,5.0,12.0,70,0.00,,,3.43,,2013-07-04 20:34:00,
2013-07-04 16:42:00,84.0,71.0,30.09,WSW,240,4.0,8.0,66,0.00,,,3.43,,2013-07-04 20:42:00,
2013-07-04 16:53:00,84.0,73.0,30.09,SW,217,5.0,9.0,70,0.00,,,3.43,,2013-07-04 20:53:00,
2013-07-04 17:01:00,82.0,70.0,30.08,SSW,202,6.0,12.0,68,0.00,,,3.43,,2013-07-04 21:01:00,
2013-07-04 17:12:00,82.0,72.0,30.08,SW,219,3.0,9.0,72,0.00,,,3.43,,2013-07-04 21:12:00,
2013-07-04 17:22:00,81.0,71.0,30.08,SW,236,3.0,9.0,71,0.00,,,3.43,,2013-07-04 21:22:00,
2013-07-04 17:32:00,83.0,72.0,30.07,SSW,209,6.0,10.0,70,0.00,,,3.43,,2013-07-04 21:32:00,
2013-07-04 17:43:00,81.0,70.0,30.07,SSW,211,3.0,10.0,70,0.00,,,3.43,,2013-07-04 21:43:00,
2013-07-04 17:53:00,81.0,72.0,30.07,SSW,211,3.0,8.0,74,0.00,,,3.43,,2013-07-04 21:53:00,
2013-07-04 18:02:00,81.0,71.0,30.07,SSW,200,3.0,8.0,71,0.00,,,3.43,,2013-07-04 22:02:00,
2013-07-04 18:12:00,81.0,72.0,30.07,SW,216,2.0,8.0,74,0.00,,,3.43,,2013-07-04 22:12:00,
2013-07-04 18:22:00,81.0,70.0,30.07,SSW,202,5.0,10.0,70,0.00,,,3.43,,2013-07-04 22:22:00,
2013-07-04 18:33:00,81.0,72.0,30.06,SSW,213,3.0,6.0,73,0.00,,,3.43,,2013-07-04 22:33:00,
2013-07-04 18:43:00,81.0,72.0,30.06,SW,224,2.0,7.0,75,0.00,,,3.43,,2013-07-04 22:43:00,
2013-07-04 18:52:00,82.0,72.0,30.06,SW,231,4.0,7.0,71,0.00,,,3.43,,2013-07-04 22:52:00,
2013-07-04 19:01:00,82.0,70.0,30.06,SSW,209,4.0,7.0,67,0.00,,,3.43,,2013-07-04 23:01:00,
2013-07-04 19:12:00,82.0,71.0,30.06,SSW,208,4.0,8.0,69,0.00,,,3.43,,2013-07-04 23:12:00,
2013-07-04 19:23:00,81.0,70.0,30.06,SSW,204,3.0,6.0,70,0.00,,,3.43,,2013-07-04 23:23:00,
2013-07-04 19:33:00,81.0,71.0,30.07,SSW,204,2.0,6.0,71,0.00,,,3.43,,2013-07-04 23:33:00,
2013-07-04 19:43:00,81.0,72.0,30.07,SSW,211,3.0,6.0,73,0.00,,,3.43,,2013-07-04 23:43:00,
2013-07-04 19:52:00,80.0,70.0,30.07,SW,229,4.0,9.0,71,0.00,,,3.43,,2013-07-04 23:52:00,
2013-07-04 20:01:00,79.0,70.0,30.07,SSW,212,2.0,7.0,75,0.00,,,3.43,,2013-07-05 00:01:00,
2013-07-04 20:12:00,78.0,70.0,30.07,West,262,4.0,7.0,76,0.00,,,3.43,,2013-07-05 00:12:00,
2013-07-04 20:22:00,78.0,70.0,30.08,SW,216,3.0,6.0,77,0.00,,,3.43,,2013-07-05 00:22:00,
2013-07-04 20:32:00,78.0,71.0,30.07,SW,229,3.0,5.0,78,0.00,,,3.43,,2013-07-05 00:32:00,
2013-07-04 20:43:00,78.0,71.0,30.07,SW,229,3.0,5.0,78,0.00,,,3.43,,2013-07-05 00:43:00,
2013-07-04 20:52:00,78.0,71.0,30.07,SW,215,3.0,6.0,79,0.00,,,3.43,,2013-07-05 00:52:00,
2013-07-04 21:01:00,77.0,70.0,30.08,SW,229,4.0,6.0,79,0.00,,,3.43,,2013-07-05 01:01:00,
2013-07-04 21:11:00,77.0,70.0,30.07,SW,222,4.0,6.0,79,0.00,,,3.43,,2013-07-05 01:11:00,
2013-07-04 21:22:00,77.0,70.0,30.07,SSW,209,3.0,7.0,79,0.00,,,3.43,,2013-07-05 01:22:00,
2013-07-04 21:32:00,77.0,70.0,30.07,SW,229,3.0,7.0,79,0.00,,,3.43,,2013-07-05 01:32:00,
2013-07-04 21:42:00,75.0,70.0,30.07,SSW,210,3.0,6.0,85,0.00,,,3.43,,2013-07-05 01:42:00,
2013-07-04 21:52:00,75.0,70.0,30.07,SSW,209,4.0,6.0,85,0.00,,,3.43,,2013-07-05 01:52:00,
2013-07-04 22:02:00,75.0,71.0,30.08,SW,216,3.0,6.0,86,0.00,,,3.43,,2013-07-05 02:02:00,
2013-07-04 22:11:00,75.0,71.0,30.08,SW,215,3.0,5.0,86,0.00,,,3.43,,2013-07-05 02:11:00,
2013-07-04 22:22:00,75.0,71.0,30.08,SW,221,3.0,5.0,87,0.00,,,3.43,,2013-07-05 02:22:00,
2013-07-04 22:32:00,75.0,71.0,30.08,SW,218,3.0,6.0,87,0.00,,,3.43,,2013-07-05 02:32:00,
2013-07-04 22:42:00,74.0,70.0,30.08,SSW,211,3.0,6.0,87,0.00,,,3.43,,2013-07-05 02:42:00,
2013-07-04 22:52:00,74.0,70.0,30.08,SSW,211,3.0,6.0,87,0.00,,,3.43,,2013-07-05 02:52:00,
2013-07-04 23:02:00,74.0,71.0,30.09,SW,215,3.0,5.0,90,0.00,,,3.43,,2013-07-05 03:02:00,
2013-07-04 23:11:00,74.0,71.0,30.09,SW,215,3.0,5.0,90,0.00,,,3.43,,2013-07-05 03:11:00,
2013-07-04 23:22:00,74.0,71.0,30.09,SSW,213,3.0,5.0,90,0.00,,,3.43,,2013-07-05 03:22:00,
2013-07-04 23:33:00,74.0,71.0,30.09,SSW,213,3.0,5.0,90,0.00,,,3.43,,2013-07-05 03:33:00,
2013-07-04 23:42:00,74.0,71.0,30.09,SW,234,4.0,7.0,90,0.00,,,3.43,,2013-07-05 03:42:00,
2013-07-04 23:52:00,74.0,71.0,30.09,SW,234,4.0,7.0,90,0.00,,,3.43,,2013-07-05 03:52:00,